Regional Weather Roundup
Issued by NWS Sioux Falls, SD

Home | Current Version | Previous Version | Graphics & Text | Print | Product List | Glossary Off
Versions: 1 2 3 4 5 6 7 8 9 10 11 12 13 14 15 16 17 18 19 20 21 22 23 24 25 26 27 28 29 30 31 32 33 34 35 36 37 38 39 40 41 42 43 44 45 46 47 48 49 50

000
ASUS43 KFSD 130410
RWRFSD

WEATHER ROUNDUP FOR SE SOUTH DAKOTA/SW MINNESOTA/NW IOWA
NATIONAL WEATHER SERVICE SIOUX FALLS SD
1100 PM CDT SAT JUL 12 2014

NOTE: "FAIR" INDICATES FEW OR NO CLOUDS BELOW 12,000 FEET WITH NO
SIGNIFICANT WEATHER AND OR OBSTRUCTIONS TO VISIBILITY.


SDZ038>040-050-052>070-130500-
SOUTHEAST SOUTH DAKOTA

CITY           SKY/WX    TMP DP  RH WIND       PRES   REMARKS
CHAMBERLAIN    CLEAR     67  63  87 CALM      30.07S
HURON          CLEAR     71  65  81 W6        30.02R
MADISON        FAIR      66  66 100 NW5       30.04S
MITCHELL       CLEAR     72  66  81 SW5       30.03S
SIOUX FALLS    PTCLDY    71  65  81 CALM      30.02F
WINNER         FAIR      72  62  71 S3        30.10R
YANKTON        CLEAR     70  64  83 NW6       30.05R
$$

MNZ071-072-080-081-089-090-097-098-130500-
SOUTHWEST MINNESOTA

CITY           SKY/WX    TMP DP  RH WIND       PRES   REMARKS
FAIRMONT       CLEAR     66  61  82 CALM      30.00S
JACKSON        CLEAR     66  63  88 CALM      30.02F
LUVERNE        CLEAR     68  63  83 CALM      30.02F
MARSHALL       CLEAR     66  64  94 W8        29.98S
MONTEVIDEO     CLEAR     70  64  83 W6        29.97S
PIPESTONE      CLEAR     70  64  83 NW6       30.03S
REDWOOD FALLS  CLEAR     68  65  90 SW5       29.97S
TRACY          CLEAR     69  66  90 W5        30.00F
WINDOM         CLEAR     68  64  88 SW3       30.01S
WORTHINGTON    CLEAR     68  64  88 W3        30.03F
$$

IAZ001>003-012>014-020>022-031-032-NEZ013-014-SDZ071-130500-
NORTHWEST IOWA

CITY           SKY/WX    TMP DP  RH WIND       PRES   REMARKS
CHEROKEE       CLEAR     67  67 100 CALM      30.02S
DENISON        CLEAR     68  66  94 CALM      30.01S
ESTHERVILLE    CLEAR     66  65  96 CALM      30.02R
LE MARS        CLEAR     70  68  94 NE3       30.03S
ORANGE CITY    CLEAR     70  66  88 NW3       30.04S
SHELDON        CLEAR     66  66 100 CALM      30.02S
SIOUX CITY     CLEAR     68  67  96 CALM      30.03R
SPENCER        PTCLDY    69  66  90 N5        30.02S
STORM LAKE     CLEAR     66  66 100 W7        30.04S
$$

ABBREVIATIONS USED IN REMARKS
   TC - TEMPERATURE IN CELSIUS
  WCI - WIND CHILL INDEX
   HX - HEAT INDEX
  VSB - VISIBILITY



USA.gov is the U.S. government's official web portal to all federal, state and local government web resources and services.